Retour au catalogue

CZ-6A DEB

ActifSSO
NORAD 54424·DEBRIS·🇨🇳 China

Lancé Nov 11, 2022 depuis Taiyuan Satellite Launch Center

Loading…

Prochains Passages (prochaines 24 heures)

TLE

FraisSource: Space-Track

Époque: Sep 14, 2026, 12:52 UTC

1 54424U 22151EY  26257.53664758  .00000017  00000-0  39011-4 0  9992
2 54424  98.9753 251.2360 0105850 137.1955 223.7513 13.99865518195857

Suivez CZ-6A DEB en temps réel avec AllMySat

Download on the App Store